Weather Roundup
Issued by NWS Chicago, IL

Home | Current Version | Previous Version | Text Only | Print | Product List | Glossary On
Versions: 1 2 3 4 5 6 7 8 9 10 11 12 13 14 15 16 17 18 19 20 21 22 23 24 25 26 27 28 29 30 31 32 33 34 35 36 37 38 39 40 41 42 43 44 45 46 47 48 49 50
000
NZUS59 KLOT 281110
HRRLOT

CHICAGO AREA WEATHER ROUNDUP
NATIONAL WEATHER SERVICE CHICAGO/ROMEOVILLE IL
600 AM CDT MON JUL 28 2014

NOTE: "FAIR" INDICATES FEW OR NO CLOUDS BELOW 12,000 FEET WITH NO
SIGNIFICANT WEATHER AND/OR OBSTRUCTIONS TO VISIBILITY.

* THESE STATIONS ARE NOT UNDER NWS QUALITY CONTROL. THEY ALSO MAY NOT
  REPORT WEATHER SUCH AS PRECIPITATION OR FOG.

ILZ005-006-012>014-019>023-281200-
NORTHEAST ILLINOIS

CITY           SKY/WX    TMP DP  RH WIND       PRES   REMARKS
OHARE          PTCLDY    60  47  61 NW12      29.99R
MIDWAY         PTCLDY    62  51  67 NW12      29.99R
AURORA         CLEAR     57  52  83 NW9       30.02R
LANSING*       CLEAR     60  50  68 NW10      29.98R
JOLIET*        CLEAR     58  53  84 NW3       30.01R
WAUKEGAN       CLEAR     55  49  80 NW8       29.99R
DUPAGE AIRPORT CLEAR     58  52  80 NW10      30.00R
WHEELING       CLEAR     59  49  69 NW10      30.01R
KANKAKEE*      CLEAR     58  53  84 NW6       29.99R
MORRIS*        CLEAR     58  55  88 NW5       30.01R
LEWIS AIRPORT* CLEAR     58  52  81 N8        30.00R
NORTHERLY IS     N/A     61  52  72 NW10        N/A
$$

WIZ051-052-058>065-066-070>072-281200-
SOUTHEAST WISCONSIN

CITY           SKY/WX    TMP DP  RH WIND       PRES   REMARKS
MILWAUKEE      PTCLDY    56  47  71 NW10      30.01R
KENOSHA*       CLEAR     56  49  77 NW8       30.01R
RACINE*        CLEAR     56  48  74 N12       30.02R
BURLINGTON     CLEAR     52  50  93 NW6       30.03R
WEST BEND      CLEAR     52  43  71 NW8       30.03R
$$

INZ001>003-010>013-019-020-281200-
NORTHWEST INDIANA

CITY           SKY/WX    TMP DP  RH WIND       PRES   REMARKS
GARY*          MOCLDY    63  54  72 N20       29.97R
MICHIGAN CITY* NOT AVBL
RENSSELAER*    NOT AVBL
VALPARAISO     CLOUDY    60  54  80 N10G21    29.96R
$$

LMZ740>746-281200-
SOUTHERN LAKE MICHIGAN

STATION/POSITION TIME  SKY/WX   TEMP WIND        PRES    VSBY
                                AIR  DIR/SP/G
                 (UTC)          (F)  (DEG/KT/KT) (MB)    (MI)
HARRISON CRIB    1100            61  330/ 22/ 25   N/A
BURNHAM HARBOR   1100            61  340/ 10/ 15   N/A
CALUMET HARBOR   1100            61  320/  5/ 13 1013.7S
BURNS HARBOR     NOT AVBL
MICHIGAN CITY    1100            61  330/ 26/ 31   N/A
$$

ABBREVIATIONS USED IN REMARKS
   TC - TEMPERATURE IN CELSIUS
  WCI - WIND CHILL INDEX
   HX - HEAT INDEX
  VSB - VISIBILITY
$$


USA.gov is the U.S. government's official web portal to all federal, state and local government web resources and services.